Waarnemingen

Advertentie
Mijn weer
Boulogne, Frankrijk (7002): temperatuur & dauwpunt: 18.02.2017 09:00:00 - 24.02.2017 09:00:00 (CET)Boulogne, Frankrijk (7002): windsnelheid & windstoten: 18.02.2017 09:00:00 - 24.02.2017 09:00:00 (CET)Boulogne, Frankrijk (7002): windrichting: 18.02.2017 09:00:00 - 24.02.2017 09:00:00 (CET)Boulogne, Frankrijk (7002): luchtdruk: 18.02.2017 09:00:00 - 24.02.2017 09:00:00 (CET)Boulogne, Frankrijk (7002): zicht: 18.02.2017 09:00:00 - 24.02.2017 09:00:00 (CET)Boulogne, Frankrijk (7002): neerslag: 18.02.2017 09:00:00 - 24.02.2017 09:00:00 (CET)
Datum & Tijd tt [°C] td [°C] ff [km/u] ff [kn] fx [km/u] fx [kn] dd ppp [hPa] vv [km] rr [mm]
24.02.2017 09:00:00 5,1 1,8 19 10 44 24 WNW 1014,7 - 0,0
24.02.2017 08:00:00 5,1 2,3 23 12 44 24 WNW 1013,7 - 0,4
24.02.2017 07:00:00 5,5 1,6 21 11 44 24 NW 1012,7 20 0,0
24.02.2017 06:00:00 5,5 2,0 22 12 37 20 NW 1012,3 - 0,0
24.02.2017 05:00:00 5,6 2,1 24 13 46 25 NW 1011,3 - 0,0
24.02.2017 04:00:00 5,8 2,4 27 15 49 26 NW 1010,6 20 0,0
24.02.2017 03:00:00 5,9 2,5 25 13 49 26 WNW 1009,8 - 0,0
24.02.2017 02:00:00 6,0 2,5 27 15 48 26 WNW 1008,8 - 0,0
24.02.2017 01:00:00 6,5 1,8 28 15 56 30 WNW 1007,9 20 0,0
24.02.2017 00:00:00 6,9 2,4 32 18 72 39 WNW 1006,8 - 0,0
23.02.2017 23:00:00 7,2 1,9 37 20 75 40 WNW 1005,6 - 0,0
23.02.2017 22:00:00 7,6 1,9 41 22 78 42 WNW 1004,1 - 0,0
23.02.2017 21:00:00 8,2 2,0 51 28 82 45 W 1002,4 - 0,0
23.02.2017 20:00:00 8,2 3,6 54 29 92 50 W 1000,7 - 0,0
23.02.2017 19:00:00 8,4 3,4 57 31 91 49 W 999,1 - 0,0
23.02.2017 18:00:00 8,6 3,2 63 34 104 56 W 997,9 - 0,0
23.02.2017 17:00:00 9,0 3,8 63 34 105 57 W 996,9 - 0,0
23.02.2017 16:00:00 9,4 3,8 67 36 113 61 W 995,7 6 0,0
23.02.2017 15:00:00 9,5 4,1 62 33 115 62 W 995,4 - 0,0
23.02.2017 14:00:00 9,6 4,6 66 35 112 61 WZW 994,9 - 0,0
23.02.2017 13:00:00 9,7 5,1 63 34 115 62 WZW 995,4 - 0,0
23.02.2017 12:00:00 9,6 6,5 63 34 105 57 WZW 995,7 - 0,2
23.02.2017 11:00:00 8,4 7,6 58 31 - - ZW 995,6 - 0,0
23.02.2017 10:00:00 8,2 7,6 45 25 90 49 ZZW 997,2 - 0,0
23.02.2017 09:00:00 8,2 7,6 49 26 90 48 ZW 999,3 - 0,0
23.02.2017 08:00:00 8,0 7,6 44 24 90 48 ZW 999,9 - 0,0
23.02.2017 07:00:00 7,9 7,6 49 27 82 44 ZW 1001,6 - 0,0
23.02.2017 06:00:00 8,0 7,7 42 23 80 43 ZW 1003,1 - 0,0
23.02.2017 05:00:00 8,1 7,7 40 22 74 40 ZW 1004,0 - 0,0
23.02.2017 04:00:00 8,4 7,8 40 22 77 42 ZW 1005,2 4,0 0,0
23.02.2017 03:00:00 8,6 7,8 46 25 74 40 ZW 1006,5 - 0,0
23.02.2017 02:00:00 8,8 7,7 47 25 70 38 ZW 1007,6 - 0,0
23.02.2017 01:00:00 8,4 8,3 46 25 74 40 WZW 1008,3 4,0 0,0
23.02.2017 00:00:00 8,7 8,7 46 25 68 37 WZW 1008,7 - 0,0
22.02.2017 23:00:00 8,7 8,7 46 25 69 37 WZW 1009,2 - 0,0
22.02.2017 22:00:00 8,8 8,8 45 24 67 36 WZW 1009,8 2,5 0,0
22.02.2017 21:00:00 8,9 8,9 46 25 71 38 WZW 1009,9 - 0,0
22.02.2017 20:00:00 8,9 8,9 45 24 67 36 WZW 1009,9 - 0,0
22.02.2017 19:00:00 8,8 8,8 46 25 68 37 WZW 1010,2 - 0,0
22.02.2017 18:00:00 8,8 8,8 47 26 67 36 WZW 1010,2 - 0,0
22.02.2017 17:00:00 8,9 8,9 46 25 68 37 WZW 1010,2 - 0,0
22.02.2017 16:00:00 8,7 8,7 46 25 72 39 WZW 1010,4 2,0 0,0
22.02.2017 15:00:00 8,8 8,8 48 26 71 38 WZW 1011,0 - 0,0
22.02.2017 14:00:00 8,8 8,7 45 24 78 42 WZW 1011,2 - 0,0
22.02.2017 13:00:00 9,0 8,7 51 28 84 45 WZW 1011,3 4,0 0,0
22.02.2017 12:00:00 9,0 8,7 48 26 74 40 WZW 1011,6 - 0,0
22.02.2017 11:00:00 9,0 8,7 45 25 69 37 WZW 1012,2 - 0,0
22.02.2017 10:00:00 9,1 8,2 42 23 70 38 WZW 1011,9 8 0,0
22.02.2017 09:00:00 9,2 8,3 42 23 69 37 WZW 1012,0 - 0,0
22.02.2017 08:00:00 9,2 8,1 41 22 67 36 WZW 1011,8 - 0,0
22.02.2017 07:00:00 9,0 8,1 42 23 72 39 WZW 1011,5 8 0,0
22.02.2017 06:00:00 9,0 8,1 45 24 71 39 WZW 1011,8 - 0,0
22.02.2017 05:00:00 9,0 8,2 45 24 71 38 WZW 1012,2 - 0,0
22.02.2017 04:00:00 9,1 8,3 47 26 67 36 WZW 1012,6 8 0,0
22.02.2017 03:00:00 8,9 8,6 44 24 78 42 WZW 1012,9 - 0,0
22.02.2017 02:00:00 8,7 8,6 46 25 71 39 ZW 1013,1 - 0,0
22.02.2017 01:00:00 8,5 8,5 - - - - - 1014,1 4,0 0,0
22.02.2017 00:00:00 8,5 8,5 43 23 - - WZW 1014,7 - 0,0
21.02.2017 23:00:00 8,5 8,5 41 22 61 33 WZW 1015,2 - 0,0
21.02.2017 22:00:00 8,5 8,5 39 21 61 33 ZW 1015,5 0,2 -
21.02.2017 21:00:00 8,5 8,5 37 20 56 31 ZW 1015,8 - 0,0
21.02.2017 20:00:00 8,5 8,5 35 19 57 31 WZW 1015,9 - 0,0
21.02.2017 19:00:00 8,5 8,5 37 20 53 28 WZW 1016,2 - 0,0
21.02.2017 18:00:00 8,6 8,6 32 17 52 28 WZW 1016,5 - 0,0
21.02.2017 17:00:00 8,6 8,6 32 17 45 24 WZW 1016,6 - 0,0
21.02.2017 16:00:00 8,6 8,6 27 14 40 22 WZW 1017,1 2,5 0,0
21.02.2017 15:00:00 8,6 8,6 21 11 32 17 ZW 1017,9 - 0,0
21.02.2017 14:00:00 8,7 8,7 20 11 33 18 WZW 1018,4 - 0,0
21.02.2017 13:00:00 8,6 8,6 19 10 39 21 WZW 1019,0 6 0,0
21.02.2017 12:00:00 8,8 8,8 19 10 38 20 W 1019,0 - 0,0
21.02.2017 11:00:00 8,5 8,5 21 12 35 19 W 1019,0 - 0,0
21.02.2017 10:00:00 8,5 8,5 21 12 42 23 WZW 1018,6 - 0,0
21.02.2017 09:00:00 8,3 8,3 24 13 40 21 W 1018,5 - 0,0
21.02.2017 08:00:00 8,4 8,4 26 14 40 22 W 1018,3 - 0,0
21.02.2017 07:00:00 8,3 8,3 24 13 48 26 WZW 1018,0 5 0,0
21.02.2017 06:00:00 8,2 8,2 23 13 53 28 WZW 1018,2 - 0,0
21.02.2017 05:00:00 8,3 8,3 29 16 44 24 W 1018,2 - 0,0
21.02.2017 04:00:00 8,5 8,5 24 13 50 27 W 1018,4 0,1 0,0
21.02.2017 03:00:00 8,6 8,6 25 13 46 25 W 1018,6 - 0,0
21.02.2017 02:00:00 8,8 8,8 25 14 44 24 WZW 1018,6 - 0,0
21.02.2017 01:00:00 8,8 8,8 22 12 40 21 WZW 1018,7 0,1 0,0
21.02.2017 00:00:00 8,6 8,6 16 8 27 14 ZW 1018,9 - 0,0
20.02.2017 23:00:00 8,7 8,7 12 7 29 16 ZZW 1019,0 - 0,0
20.02.2017 22:00:00 8,6 8,6 13 7 32 18 Z 1019,2 0,1 0,0
20.02.2017 21:00:00 8,4 8,4 13 7 30 16 Z 1019,1 - 0,0
20.02.2017 20:00:00 8,2 8,2 20 11 40 22 ZW 1019,3 - 0,0
20.02.2017 19:00:00 8,4 8,4 21 11 42 23 ZW 1018,9 0,1 0,0
20.02.2017 18:00:00 8,2 8,2 21 12 37 20 ZW 1018,5 - 0,0
20.02.2017 17:00:00 8,7 8,7 16 9 32 17 ZZW 1018,6 - 0,0
20.02.2017 16:00:00 8,9 8,9 19 11 36 19 WZW 1019,0 - 0,0
20.02.2017 15:00:00 9,0 9,0 21 11 37 20 ZW 1019,0 - 0,0
20.02.2017 14:00:00 8,9 8,9 24 13 38 21 ZW 1019,0 - 0,0
20.02.2017 13:00:00 8,7 8,7 20 11 32 17 WZW 1019,6 - 0,0
20.02.2017 12:00:00 8,8 8,8 20 11 33 18 WZW 1020,5 - 0,0
20.02.2017 11:00:00 8,7 8,7 20 11 37 20 ZW 1020,3 - 0,0
20.02.2017 10:00:00 8,6 8,6 21 11 37 20 ZW 1020,1 0,2 0,0
20.02.2017 09:00:00 8,6 8,6 22 12 37 20 ZW 1020,1 - 0,0
20.02.2017 08:00:00 8,6 8,6 24 13 43 23 ZW 1020,2 - 0,0
20.02.2017 07:00:00 8,4 8,4 25 13 40 21 ZW 1020,2 0,4 0,0
20.02.2017 06:00:00 8,2 8,2 25 13 - - ZW 1020,2 - 0,0
20.02.2017 05:00:00 8,0 8,0 21 11 39 21 WZW 1020,6 - 0,0
20.02.2017 04:00:00 8,1 8,1 23 12 37 20 WZW 1020,8 1,0 0,0
20.02.2017 03:00:00 8,0 7,9 23 13 33 18 WZW 1021,7 - 0,0
20.02.2017 02:00:00 8,2 8,1 22 12 35 19 WZW 1022,1 - 0,0
20.02.2017 01:00:00 8,3 8,0 21 11 39 21 WZW 1022,5 - 0,0
20.02.2017 00:00:00 8,2 7,9 21 12 33 18 WZW 1022,7 - 0,0
19.02.2017 23:00:00 8,1 7,7 20 11 30 16 ZW 1022,9 - 0,0
19.02.2017 22:00:00 8,1 7,5 19 11 29 15 ZW 1023,0 - 0,0
19.02.2017 21:00:00 7,9 7,1 18 10 28 15 WZW 1023,1 - 0,0
19.02.2017 20:00:00 8,0 7,1 21 11 29 16 ZW 1023,1 - 0,0
19.02.2017 19:00:00 7,7 6,8 21 12 28 15 WZW 1023,0 10 0,0
19.02.2017 18:00:00 7,8 6,9 19 10 - - WZW 1022,5 - 0,0
19.02.2017 17:00:00 8,3 6,6 - - - - - 1022,7 - 0,0
19.02.2017 16:00:00 9,2 7,3 - - 35 19 - 1022,9 10 0,0
19.02.2017 15:00:00 9,1 7,2 22 12 35 19 WZW 1023,1 - 0,0
19.02.2017 14:00:00 8,9 7,2 21 11 35 19 WZW 1023,4 - 0,0
19.02.2017 13:00:00 8,2 7,0 19 10 36 20 W 1023,8 - 0,0
19.02.2017 12:00:00 7,9 6,7 16 9 30 16 W 1024,1 - 0,0
19.02.2017 11:00:00 7,8 7,0 18 10 31 17 WZW 1023,8 - 0,0
19.02.2017 10:00:00 7,7 7,3 18 10 28 15 WZW 1023,8 4,0 0,0
19.02.2017 09:00:00 7,5 7,1 18 10 27 14 ZW 1023,5 - 0,0
19.02.2017 08:00:00 6,2 5,6 14 8 29 16 ZZW 1023,3 - 0,0
19.02.2017 07:00:00 6,0 5,6 14 8 29 15 ZZW 1023,2 - 0,0
19.02.2017 06:00:00 5,5 4,9 16 8 31 17 Z 1023,5 - 0,0
19.02.2017 05:00:00 5,2 4,3 17 9 31 17 Z 1023,7 - 0,0
19.02.2017 04:00:00 5,2 4,3 16 9 30 16 Z 1023,8 - 0,0
19.02.2017 03:00:00 5,0 4,0 16 9 32 17 Z 1024,4 - 0,0
19.02.2017 02:00:00 4,2 3,6 17 9 27 15 ZZO 1024,5 - 0,0
19.02.2017 01:00:00 4,1 3,4 13 7 26 14 ZZO 1025,0 - 0,0
19.02.2017 00:00:00 4,5 3,8 14 8 24 13 ZZO 1025,3 - 0,0
18.02.2017 23:00:00 5,3 4,4 14 7 22 12 ZZO 1025,3 - 0,0
18.02.2017 22:00:00 5,9 4,7 15 8 22 12 ZZO 1025,3 - 0,0
18.02.2017 21:00:00 6,4 4,9 10 6 16 8 ZZO 1025,1 - 0,0
18.02.2017 20:00:00 7,2 4,3 9 5 16 8 ZO 1025,2 - 0,0
18.02.2017 19:00:00 7,7 3,7 9 5 16 9 Z 1025,2 6 0,0
18.02.2017 18:00:00 8,9 4,1 10 5 23 12 Z 1025,1 - 0,0
18.02.2017 17:00:00 9,6 4,0 15 8 26 14 ZZW 1025,2 - 0,0
18.02.2017 16:00:00 9,9 4,1 14 8 28 15 ZZW 1025,3 6 0,0
18.02.2017 15:00:00 9,3 3,9 18 10 29 16 ZZW 1025,6 - 0,0
18.02.2017 14:00:00 8,5 5,2 18 10 29 16 ZW 1026,2 - 0,0
18.02.2017 13:00:00 9,4 5,4 11 6 25 13 ZZW 1026,6 - 0,0
18.02.2017 12:00:00 9,0 5,7 12 6 20 11 Z 1027,1 - 0,0
18.02.2017 11:00:00 7,5 5,5 9 5 21 11 ZZO 1027,2 - 0,0
18.02.2017 10:00:00 5,2 4,3 11 6 23 13 ZO 1026,9 - 0,0
18.02.2017 09:00:00 3,9 3,5 14 7 23 12 ZO 1026,8 - 0,0

tt = temperatuur
td = dauwpunt
ff = windsnelheid
fx = windstoten
dd = windrichting
ppp = luchtdruk
vv = zicht
rr = neerslag

Weerstations in de omgeving